Read MPEC 2006-B21
Read MPEC 2006-B23
M.P.E.C. 2006-B22 Issued 2006 Jan. 22, 02:33 UT
The Minor Planet Electronic Circulars contain information on unusual
minor planets and routine data on comets. They are published
on behalf of Commission 20 of the International Astronomical Union by the
Minor Planet Center, Smithsonian Astrophysical Observatory,
Cambridge, MA 02138, U.S.A.
Supported in part by the Brinson Foundation
Supported in part by the TABASGO Foundation
Prepared using the Tamkin Foundation Computer Network
MPC@CFA.HARVARD.EDU
URL http://cfa-www.harvard.edu/iau/mpc.html ISSN 1523-6714
2006 BG
Observations:
K06B00G* C2006 01 20.37412 09 47 43.65 +06 52 48.2 19.1 V EB022703
K06B00G C2006 01 20.38053 09 47 43.08 +06 52 46.0 19.4 V EB022703
K06B00G C2006 01 20.38696 09 47 42.54 +06 52 45.7 19.0 V EB022703
K06B00G C2006 01 20.39335 09 47 41.96 +06 52 44.7 19.1 V EB022703
K06B00G C2006 01 20.40273 09 47 41.10 +06 52 41.5 18.6 V EB022703
K06B00G C2006 01 20.40854 09 47 40.69 +06 52 41.4 18.4 V EB022703
K06B00G C2006 01 20.40941 09 47 40.56 +06 52 39.6 18.0 V EB022703
K06B00G C2006 01 20.41521 09 47 40.02 +06 52 38.9 18.9 V EB022703
K06B00G C2006 01 20.41608 09 47 39.94 +06 52 37.9 19.4 V EB022703
K06B00G C2006 01 20.42198 09 47 39.43 +06 52 36.0 19.2 V EB022703
K06B00G C2006 01 20.42285 09 47 39.37 +06 52 35.8 18.7 V EB022703
K06B00G C2006 01 20.95051 09 46 55.62 +06 50 08.7 18.3 R EB022143
K06B00G C2006 01 20.99307 09 46 51.82 +06 49 57.6 18.9 R EB022143
K06B00G C2006 01 21.00153 09 46 51.13 +06 49 53.9 EB022J95
K06B00G C2006 01 21.00573 09 46 50.77 +06 49 53.2 EB022J95
K06B00G C2006 01 21.00992 09 46 50.37 +06 49 52.2 19.1 R EB022J95
K06B00G C2006 01 21.07026 09 46 44.89 +06 49 38.9 19.1 R EB022176
K06B00G C2006 01 21.07141 09 46 44.79 +06 49 38.4 19.1 R EB022176
K06B00G C2006 01 21.07256 09 46 44.70 +06 49 37.9 19.2 R EB022176
K06B00G C2006 01 21.07372 09 46 44.57 +06 49 37.7 19.3 R EB022176
K06B00G C2006 01 21.07487 09 46 44.43 +06 49 37.0 19.2 R EB022176
K06B00G 5C2006 01 21.43056 09 46 13.12 +06 48 03.2 19.5 R EB022673
K06B00G 5C2006 01 21.43692 09 46 12.49 +06 48 01.0 EB022673
K06B00G 5C2006 01 21.44155 09 46 12.08 +06 47 59.6 EB022673
K06B00G 5C2006 01 21.44514 09 46 11.75 +06 47 59.0 EB022673
K06B00G C2006 01 22.03512 09 45 18.43 +06 45 16.4 EB022J95
K06B00G C2006 01 22.03932 09 45 18.04 +06 45 15.1 EB022J95
K06B00G C2006 01 22.04354 09 45 17.59 +06 45 14.5 19.4 R EB022J95
Observer details:
143 Gnosca. Observer S. Sposetti. 0.40-m f/4 reflector + CCD.
176 Observatori Astronomic de Consell. Observers A. Lopez, R. Pacheco.
0.41-m f/4 reflector + CCD.
673 Table Mountain Observatory, Wrightwood. Observer J. Young. 0.6-m f/16
Cassegrain + CCD.
703 Catalina Sky Survey. Observer R. A. Kowalski. Measurers E. C. Beshore,
E. J. Christensen, G. J. Garradd, A. D. Grauer, R. E. Hill, R. A. Kowalski,
S. M. Larson, R. H. McNaught. 0.68-m Schmidt + CCD.
J95 Great Shefford. Observer P. Birtwhistle. 0.40-m f/6.0 Schmidt-Cassegrain
+ CCD.
Orbital elements:
2006 BG Earth MOID = 0.0653 AU
Epoch 2006 Jan. 5.0 TT = JDT 2453740.5 MPC
M 311.43884 (2000.0) P Q
n 0.45718301 Peri. 341.93372 -0.13771809 +0.98727919
a 1.6688194 Node 280.09284 -0.89849385 -0.15828684
e 0.7310337 Incl. 4.62919 -0.41682433 +0.01500285
P 2.16 H 18.6 G 0.15
From 28 observations 2006 Jan. 20-22.
Ephemeris:
2006 BG a,e,i = 1.67, 0.73, 5 q = 0.4489
Date TT R. A. (2000) Decl. Delta r Elong. Phase V
2006 01 15 09 53.68 +07 18.3 0.663 1.579 146.2 20.3 19.7
2006 01 25 09 40.17 +06 32.6 0.512 1.473 158.5 14.2 18.8
2006 02 04 09 12.75 +05 52.0 0.380 1.361 169.5 7.6 17.7
2006 02 14 08 20.73 +05 05.1 0.272 1.242 156.7 18.3 17.2
2006 02 24 06 46.55 +03 33.9 0.200 1.116 124.7 46.8 17.1
2006 03 06 04 31.69 +00 39.4 0.182 0.982 81.7 87.8 17.9
2006 03 16 02 31.26 -02 08.4 0.223 0.843 42.2 127.5 20.4
Gareth V. Williams (C) Copyright 2006 MPC M.P.E.C. 2006-B22
Read MPEC 2006-B21
Read MPEC 2006-B23
Our Web policy. Index to the CBAT/MPC/ICQ pages.